Weather History for Cut Bank, MT

Change the Weather History Date:

Friday, February 8, 2013

  Actual Average Record
Temperature  
Mean Temperature 35 °F 23 °F  
Max Temperature 55 °F 34 °F 60 °F (1954)
Min Temperature 15 °F 12 °F -44 °F (1994)
Degree Days  
Heating Degree Days 30 42  
Month to date heating degree days 207 336  
Since 1 July heating degree days 4950 5254  
Cooling Degree Days 0 0  
Month to date cooling degree days 0 0  
Year to date cooling degree days 0 0  
Moisture  
Dew Point 16 °F    
Average Humidity 55    
Maximum Humidity 88    
Minimum Humidity 21    
Precipitation  
Precipitation 0.00 in 0.01 in 0.33 in (1916)
Month to date precipitation 0.00 0.05  
Year to date precipitation 0.42 0.25  
Snow  
Snow 0.00 in - - ()
Snow Depth 0.00 in    
Sea Level Pressure  
Sea Level Pressure 29.97 in    
Wind  
Wind Speed 7 mph (WNW)    
Max Wind Speed 17 mph    
Max Gust Speed 20 mph    
Visibility 10 miles    
Events      
T = Trace of Precipitation, MM = Missing Value Source: NWS Daily Summary

Daily Weather History Graph

Daily Weather History Graph

Search for Another Location

Airport:

Trip Planner

Search our weather history database for the weather conditions in past years. The results will help you decide how hot, cold, wet, or windy it might be!

Date:

Astronomy

Feb. 08, 2013 Rise Set
Actual Time 7:48 AM MST 5:40 PM MST
Civil Twilight 7:15 AM MST 6:13 PM MST
Nautical Twilight 6:37 AM MST 6:50 PM MST
Astronomical Twilight 6:01 AM MST 7:26 PM MST
Moon 6:23 AM MST (2/8) 4:15 PM MST (2/8)
Length of Visible Light 10h 57m
Length of Day
9h 51m
Waning Crescent, 3% of the Moon is Illuminated
Feb 8
Waning Crescent
Feb 10
New
Feb 17
First Quarter
Feb 25
Full
Mar 4
Last Quarter

Hourly Weather History & Observations

Time (MST) Temp. Windchill Dew Point Humidity Pressure Visibility Wind Dir Wind Speed Gust Speed Precip Events Conditions
12:56 AM 23.0 °F 15.8 °F 18.0 °F 81% 29.92 in 10.0 mi WNW 5.8 mph - N/A   Clear
1:56 AM 24.1 °F 17.0 °F 17.1 °F 75% 29.94 in 10.0 mi West 5.8 mph - N/A   Clear
2:56 AM 23.0 °F 14.7 °F 17.1 °F 78% 29.95 in 10.0 mi WNW 6.9 mph - N/A   Clear
3:56 AM 23.0 °F 13.1 °F 17.1 °F 78% 29.94 in 10.0 mi North 9.2 mph - N/A   Clear
4:56 AM 19.9 °F 13.4 °F 15.1 °F 81% 29.97 in 10.0 mi West 4.6 mph - N/A   Clear
5:56 AM 16.0 °F 8.8 °F 12.0 °F 84% 30.01 in 10.0 mi WNW 4.6 mph - N/A   Clear
6:56 AM 23.0 °F 13.1 °F 16.0 °F 74% 30.01 in 10.0 mi West 9.2 mph - N/A   Clear
7:56 AM 21.9 °F 13.4 °F 16.0 °F 78% 30.02 in 10.0 mi West 6.9 mph - N/A   Clear
8:56 AM 25.0 °F 19.3 °F 18.0 °F 75% 30.03 in 10.0 mi WNW 4.6 mph - N/A   Clear
9:56 AM 34.0 °F 28.8 °F 21.9 °F 61% 30.00 in 10.0 mi West 5.8 mph - N/A   Clear
10:56 AM 39.0 °F 33.4 °F 19.9 °F 46% 30.00 in 10.0 mi WNW 8.1 mph - N/A   Clear
11:56 AM 43.0 °F 38.8 °F 17.1 °F 35% 29.97 in 10.0 mi West 6.9 mph - N/A   Clear
12:56 PM 44.1 °F 42.5 °F 15.1 °F 31% 29.96 in 10.0 mi Variable 3.5 mph - N/A   Clear
1:56 PM 50.0 °F - 15.1 °F 25% 29.92 in 10.0 mi WNW 5.8 mph - N/A   Clear
2:56 PM 51.1 °F - 12.9 °F 22% 29.91 in 10.0 mi SW 6.9 mph - N/A   Clear
3:56 PM 48.0 °F - 10.9 °F 22% 29.91 in 10.0 mi Calm Calm - N/A   Partly Cloudy
4:56 PM 43.0 °F 40.3 °F 12.9 °F 30% 29.93 in 10.0 mi West 4.6 mph - N/A   Clear
5:56 PM 30.9 °F 23.5 °F 16.0 °F 54% 29.99 in 10.0 mi West 8.1 mph - N/A   Clear
6:56 PM 27.0 °F - 16.0 °F 63% 29.99 in 10.0 mi North - - N/A   Clear
7:56 PM 23.0 °F 11.7 °F 15.1 °F 72% 30.00 in 10.0 mi WNW 11.5 mph - N/A   Clear
8:56 PM 24.1 °F 14.4 °F 16.0 °F 71% 30.00 in 10.0 mi WNW 9.2 mph - N/A   Clear
9:56 PM 21.0 °F 12.4 °F 14.0 °F 74% 29.99 in 10.0 mi NW 6.9 mph - N/A   Clear
10:56 PM 19.9 °F 8.6 °F 14.0 °F 78% 29.98 in 10.0 mi WNW 10.4 mph - N/A   Clear
11:56 PM 19.9 °F 10.1 °F 12.9 °F 74% 29.97 in 10.0 mi WNW 8.1 mph - N/A   Clear